O3B FM15 (43231 NORAD) Tracking and Keplerian Element Data

This shows tracking and keplerian element data for the satellite.

Feedback or suggestion? Click here.




ElementValue
Catalog43231
NameO3B FM15
Epoch Orbit2167
Epoch Day136.70668846
Epoch Year2019
RAAN17.8996
Inclination0.0443
Eccentricity0.0002809
Argument of Perigee40.1091
Mean Anonmoly302.0188
Mean Motion5.00115374
Decay Rate-2.5E-07
L11 43231U 18024A 19136.70668846 -.00000025 00000-0 00000-0 0 9991
L22 43231 0.0443 17.8996 0002809 40.1091 302.0188 5.00115374 21674

Live tracking and technical data element details for O3B FM15 (NORAD 43231). O3B FM15 can be tracked NOW for your location showing map with azimuth and elevation plus other details from your city location.

Track the satellite on the map from your city or location and see movement details for azimuth, elevation, latitude, longitude, range, height, and movement on the map or in text.







IsCatalogInMostPopularTable: catalog: 43231, numindb: 191
Update: records affected: 1



GetName: 43231 O3B FM15

Hit Count: updated at: Tue, 21 May 2019 21:03:03 GMT